Weather History for Rayong, Thailand

Change the Weather History Date:

Friday, August 2, 2013

  Actual Average Record
Temperature  
Mean Temperature 84 °F -  
Max Temperature 87 °F 88 °F 93 °F (2000)
Min Temperature 80 °F 79 °F 75 °F (2012)
Cooling Degree Days 18    
Growing Degree Days 34 (Base 50)    
Moisture  
Dew Point 75 °F    
Average Humidity 75    
Maximum Humidity 84    
Minimum Humidity 62    
Precipitation  
Precipitation 0.00 in - - ()
Sea Level Pressure  
Sea Level Pressure 29.67 in    
Wind  
Wind Speed 6 mph ()    
Max Wind Speed 12 mph    
Max Gust Speed -    
Visibility 6.0 miles    
Events      
Averages and records for this station are not official NWS values.
T = Trace of Precipitation, MM = Missing Value Source: Averaged Metar Reports

Daily Weather History Graph

Daily Weather History Graph

Search for Another Location

Airport:

Trip Planner

Search our weather history database for the weather conditions in past years. The results will help you decide how hot, cold, wet, or windy it might be!

Date:

Astronomy

Aug. 02, 2013 Rise Set
Actual Time 6:02 AM ICT 6:42 PM ICT
Civil Twilight 5:39 AM ICT 7:04 PM ICT
Nautical Twilight 5:13 AM ICT 7:30 PM ICT
Astronomical Twilight 4:46 AM ICT 7:57 PM ICT
Moon 2:05 AM ICT (8/2) 3:07 PM ICT (8/2)
Length of Visible Light 13h 24m
Length of Day
12h 40m
Waning Crescent, 19% of the Moon is Illuminated
Aug 2
Waning Crescent
Aug 7
New
Aug 14
First Quarter
Aug 21
Full
Aug 28
Last Quarter

Hourly Weather History & Observations

Time (ICT) Temp. Heat Index Dew Point Humidity Pressure Visibility Wind Dir Wind Speed Gust Speed Precip Events Conditions
12:00 AM 82.4 °F 89.5 °F 75.2 °F 79% 29.71 in 6.2 mi West 6.9 mph - N/A   Mostly Cloudy
12:30 AM 82.4 °F 88.2 °F 73.4 °F 74% 29.68 in 6.2 mi West 6.9 mph - N/A   Mostly Cloudy
1:00 AM 82.4 °F 88.2 °F 73.4 °F 74% 29.68 in 6.2 mi West 4.6 mph - N/A   Mostly Cloudy
1:30 AM 82.4 °F 88.2 °F 73.4 °F 74% 29.65 in 6.2 mi West 4.6 mph - N/A   Mostly Cloudy
2:00 AM 82.4 °F 89.5 °F 75.2 °F 79% 29.65 in 6.2 mi West 4.6 mph - N/A   Mostly Cloudy
2:30 AM 80.6 °F 85.4 °F 73.4 °F 79% 29.62 in 6.2 mi West 4.6 mph - N/A   Mostly Cloudy
3:00 AM 80.6 °F 85.4 °F 73.4 °F 79% 29.65 in 6.2 mi West 3.5 mph - N/A   Mostly Cloudy
3:30 AM 80.6 °F 85.4 °F 73.4 °F 79% 29.62 in 6.2 mi West 3.5 mph - N/A   Mostly Cloudy
4:00 AM 80.6 °F 85.4 °F 73.4 °F 79% 29.65 in 6.2 mi WSW 4.6 mph - N/A   Mostly Cloudy
4:30 AM 82.4 °F 89.5 °F 75.2 °F 79% 29.65 in 6.2 mi WSW 3.5 mph - N/A   Mostly Cloudy
5:00 AM 80.6 °F 86.2 °F 75.2 °F 84% 29.65 in 6.2 mi West 4.6 mph - N/A   Mostly Cloudy
5:30 AM 80.6 °F 86.2 °F 75.2 °F 84% 29.65 in 6.2 mi SW 4.6 mph - N/A   Mostly Cloudy
6:00 AM 80.6 °F 86.2 °F 75.2 °F 84% 29.68 in 6.2 mi West 4.6 mph - N/A   Mostly Cloudy
6:30 AM 80.6 °F 86.2 °F 75.2 °F 84% 29.68 in 6.2 mi WNW 4.6 mph - N/A   Mostly Cloudy
7:00 AM 82.4 °F 89.5 °F 75.2 °F 79% 29.68 in 6.2 mi West 4.6 mph - N/A   Mostly Cloudy
7:30 AM 82.4 °F 89.5 °F 75.2 °F 79% 29.68 in 6.2 mi WNW 4.6 mph - N/A   Mostly Cloudy
8:00 AM 82.4 °F 89.5 °F 75.2 °F 79% 29.68 in 6.2 mi West 6.9 mph - N/A   Mostly Cloudy
8:30 AM 84.2 °F 90.9 °F 73.4 °F 70% 29.71 in 6.2 mi WSW 9.2 mph - N/A   Mostly Cloudy
9:00 AM 84.2 °F 92.3 °F 75.2 °F 74% 29.71 in 6.2 mi West 9.2 mph - N/A   Mostly Cloudy
9:30 AM 86.0 °F 95.1 °F 75.2 °F 70% 29.71 in 6.2 mi SW 11.5 mph - N/A   Mostly Cloudy
10:00 AM 86.0 °F 95.1 °F 75.2 °F 70% 29.71 in 6.2 mi WSW 11.5 mph - N/A   Mostly Cloudy
10:30 AM 86.0 °F 95.1 °F 75.2 °F 70% 29.71 in 6.2 mi WSW 9.2 mph - N/A   Mostly Cloudy
11:00 AM 87.8 °F 97.6 °F 75.2 °F 66% 29.68 in 6.2 mi WSW 11.5 mph - N/A   Mostly Cloudy
11:30 AM 87.8 °F 95.6 °F 73.4 °F 62% 29.68 in 6.2 mi West 6.9 mph - N/A   Mostly Cloudy
12:00 PM 87.8 °F 97.6 °F 75.2 °F 66% 29.68 in 6.2 mi WSW 11.5 mph - N/A   Mostly Cloudy
12:30 PM 87.8 °F 97.6 °F 75.2 °F 66% 29.68 in 6.2 mi WSW 9.2 mph - N/A   Mostly Cloudy
1:00 PM 87.8 °F 97.6 °F 75.2 °F 66% 29.68 in 6.2 mi WSW 11.5 mph - N/A   Mostly Cloudy
1:30 PM 87.8 °F 97.6 °F 75.2 °F 66% 29.65 in 6.2 mi NW 9.2 mph - N/A   Mostly Cloudy
2:00 PM 86.0 °F 95.1 °F 75.2 °F 70% 29.65 in 6.2 mi WSW 9.2 mph - N/A   Mostly Cloudy
2:30 PM 87.8 °F 97.6 °F 75.2 °F 66% 29.65 in 6.2 mi SW 6.9 mph - N/A   Mostly Cloudy
3:00 PM 86.0 °F 95.1 °F 75.2 °F 70% 29.65 in 6.2 mi SW 4.6 mph - N/A   Mostly Cloudy
3:30 PM 86.0 °F 95.1 °F 75.2 °F 70% 29.62 in 6.2 mi WSW 6.9 mph - N/A   Mostly Cloudy
4:00 PM 86.0 °F 95.1 °F 75.2 °F 70% 29.62 in 6.2 mi SW 6.9 mph - N/A   Mostly Cloudy
4:30 PM 86.0 °F 95.1 °F 75.2 °F 70% 29.62 in 6.2 mi SW 9.2 mph - N/A   Mostly Cloudy
5:00 PM 84.2 °F 92.3 °F 75.2 °F 74% 29.62 in 6.2 mi SSW 11.5 mph - N/A   Mostly Cloudy
5:30 PM 84.2 °F 92.3 °F 75.2 °F 74% 29.62 in 6.2 mi SW 11.5 mph - N/A   Mostly Cloudy
6:00 PM 82.4 °F 90.9 °F 77.0 °F 84% 29.62 in 6.2 mi SW 9.2 mph - N/A   Mostly Cloudy
6:30 PM 82.4 °F 90.9 °F 77.0 °F 84% 29.65 in 6.2 mi SSW 9.2 mph - N/A   Mostly Cloudy
7:00 PM 82.4 °F 89.5 °F 75.2 °F 79% 29.65 in 5.0 mi SW 9.2 mph - N/A   Mostly Cloudy
7:30 PM 82.4 °F 90.9 °F 77.0 °F 84% 29.65 in 5.0 mi SSW 6.9 mph - N/A   Mostly Cloudy
8:00 PM 82.4 °F 89.5 °F 75.2 °F 79% 29.68 in 5.0 mi SW 4.6 mph - N/A   Mostly Cloudy
8:30 PM 82.4 °F 89.5 °F 75.2 °F 79% 29.68 in 5.0 mi SW 3.5 mph - N/A   Mostly Cloudy
9:00 PM 82.4 °F 89.5 °F 75.2 °F 79% 29.71 in 5.0 mi WSW 4.6 mph - N/A   Mostly Cloudy
9:30 PM 82.4 °F 89.5 °F 75.2 °F 79% 29.71 in 5.0 mi SW 3.5 mph - N/A   Mostly Cloudy
10:00 PM 82.4 °F 89.5 °F 75.2 °F 79% 29.71 in 5.0 mi WSW 6.9 mph - N/A   Mostly Cloudy
10:30 PM 82.4 °F 89.5 °F 75.2 °F 79% 29.71 in 5.0 mi SW 3.5 mph - N/A   Mostly Cloudy
11:00 PM 82.4 °F 89.5 °F 75.2 °F 79% 29.74 in 5.0 mi WSW 9.2 mph - N/A   Mostly Cloudy
11:30 PM 82.4 °F 89.5 °F 75.2 °F 79% 29.74 in 5.0 mi WSW 2.3 mph - N/A   Mostly Cloudy